User: anonymous   Login
Location: Unspecified
(51.0950°N, 12.9690°E)
Time: 22:51:31
(UTC+00:00)
Language:

DUCHIFAT 1 - Orbit

View from above orbital plane
View from above orbital plane
View from above satellite
View from above satellite

Ground track
Ground track

The orbit data is extracted from the following two-line orbital elements,

1 40021U 14033M   24115.49079255  .00022375  00000-0  15548-2 0  9996
2 40021  98.0893  96.6471 0010927 283.3219  76.6787 15.05495844536040
Epoch (UTC): 24 April 2024 11:46:44
Eccentricity: 0.0010927
inclination: 98.0893°
perigee height: 542 km
apogee height: 557 km
right ascension of ascending node: 96.6471°
argument of perigee: 283.3219°
revolutions per day: 15.05495844
mean anomaly at epoch: 76.6787°
orbit number at epoch: 53604

The dashed part of the orbit path shows where the satellite is in the earth's shadow,  

DLR